<?xml version='1.0' encoding='UTF-8'?>
<gpx xmlns="http://www.topografix.com/GPX/1/1" creator="www.balnam.be" version="1.1" xmlns:xsi="http://www.w3.org/2001/XMLSchema-instance" xsi:schemaLocation="http://www.topografix.com/GPX/1/1 http://www.topografix.com/GPX/1/1/gpx.xsd">
<trk>
<name>lwrwr10</name>
<cmt>q</cmt>
<desc>Waremme Chemin n°10 </desc>
<link href="https://chemins.be/waremme/chemin/10"/><trkseg>
<trkpt lat="50.672065" lon="5.252214"><time>2026-05-02T18:14:28Z</time></trkpt>
<trkpt lat="50.670905" lon="5.251384"><time>2026-05-02T18:24:28Z</time></trkpt>
<trkpt lat="50.670450" lon="5.251226"><time>2026-05-02T18:34:28Z</time></trkpt>
</trkseg>
</trk>
<trk>
<name>lwrwr12</name>
<cmt>r</cmt>
<desc>Waremme Chemin n°12 Chemin de Petit-Axhe</desc>
<link href="https://chemins.be/waremme/chemin/12"/><trkseg>
<trkpt lat="50.684912" lon="5.234859"><time>2026-05-02T18:14:28Z</time></trkpt>
<trkpt lat="50.683937" lon="5.236681"><time>2026-05-02T18:24:28Z</time></trkpt>
</trkseg></trk>
<trk>
<name>lwrwr12</name>
<cmt>s</cmt>
<desc>Waremme Chemin n°12 Chemin de Petit-Axhe</desc>
<link href="https://chemins.be/waremme/chemin/12"/><trkseg>
<trkpt lat="50.683937" lon="5.236681"><time>2026-05-02T18:24:28Z</time></trkpt>
<trkpt lat="50.683560" lon="5.236589"><time>2026-05-02T18:34:28Z</time></trkpt>
<trkpt lat="50.683042" lon="5.236027"><time>2026-05-02T18:44:28Z</time></trkpt>
<trkpt lat="50.682485" lon="5.235975"><time>2026-05-02T18:54:28Z</time></trkpt>
<trkpt lat="50.679783" lon="5.237948"><time>2026-05-02T19:04:28Z</time></trkpt>
<trkpt lat="50.679294" lon="5.238364"><time>2026-05-02T19:14:28Z</time></trkpt>
<trkpt lat="50.678023" lon="5.240024"><time>2026-05-02T19:24:28Z</time></trkpt>
</trkseg>
</trk>
<trk>
<name>lwrwr21</name>
<cmt>v</cmt>
<desc>Waremme Chemin n°21 Chemin des Hirondelles / Rue du Tumulus</desc>
<link href="https://chemins.be/waremme/chemin/21"/><trkseg>
<trkpt lat="50.691927" lon="5.256176"><time>2026-05-02T18:14:28Z</time></trkpt>
<trkpt lat="50.691888" lon="5.256557"><time>2026-05-02T18:24:28Z</time></trkpt>
<trkpt lat="50.691888" lon="5.257633"><time>2026-05-02T18:34:28Z</time></trkpt>
<trkpt lat="50.691840" lon="5.258156"><time>2026-05-02T18:44:28Z</time></trkpt>
</trkseg>
</trk>
<trk>
<name>lwrwr22</name>
<cmt>v</cmt>
<desc>Waremme Chemin n°22 </desc>
<link href="https://chemins.be/waremme/chemin/22"/><trkseg>
<trkpt lat="50.708706" lon="5.271076"><time>2026-05-02T18:14:28Z</time></trkpt>
<trkpt lat="50.707943" lon="5.268597"><time>2026-05-02T18:24:28Z</time></trkpt>
<trkpt lat="50.707341" lon="5.267312"><time>2026-05-02T18:34:28Z</time></trkpt>
<trkpt lat="50.706439" lon="5.266586"><time>2026-05-02T18:44:28Z</time></trkpt>
</trkseg>
</trk>
<trk>
<name>lwrwr24</name>
<cmt>q</cmt>
<desc>Waremme Chemin n°24 </desc>
<link href="https://chemins.be/waremme/chemin/24"/><trkseg>
<trkpt lat="50.704439" lon="5.246000"><time>2026-05-02T18:14:28Z</time></trkpt>
<trkpt lat="50.703281" lon="5.245064"><time>2026-05-02T18:24:28Z</time></trkpt>
<trkpt lat="50.702585" lon="5.244970"><time>2026-05-02T18:34:28Z</time></trkpt>
<trkpt lat="50.701539" lon="5.245180"><time>2026-05-02T18:44:28Z</time></trkpt>
</trkseg></trk>
<trk>
<name>lwrwr24</name>
<cmt>s</cmt>
<desc>Waremme Chemin n°24 </desc>
<link href="https://chemins.be/waremme/chemin/24"/><trkseg>
<trkpt lat="50.701539" lon="5.245180"><time>2026-05-02T18:44:28Z</time></trkpt>
<trkpt lat="50.699872" lon="5.244691"><time>2026-05-02T18:54:28Z</time></trkpt>
</trkseg>
</trk>
<trk>
<name>lwrwr25</name>
<cmt>s</cmt>
<desc>Waremme Chemin n°25 </desc>
<link href="https://chemins.be/waremme/chemin/25"/><trkseg>
<trkpt lat="50.679756" lon="5.237934"><time>2026-05-02T18:14:28Z</time></trkpt>
<trkpt lat="50.678084" lon="5.237405"><time>2026-05-02T18:24:28Z</time></trkpt>
</trkseg>
</trk>
<trk>
<name>lwrwr39</name>
<cmt>d</cmt>
<desc>Waremme Chemin n°39 </desc>
<link href="https://chemins.be/waremme/chemin/39"/><trkseg>
<trkpt lat="50.703641" lon="5.257744"><time>2026-05-02T18:14:28Z</time></trkpt>
<trkpt lat="50.704689" lon="5.259183"><time>2026-05-02T18:24:28Z</time></trkpt>
<trkpt lat="50.705402" lon="5.259810"><time>2026-05-02T18:34:28Z</time></trkpt>
</trkseg>
</trk>
<trk>
<name>lwrwr44</name>
<cmt>v</cmt>
<desc>Waremme Chemin n°44 Rue Noé Jacques</desc>
<link href="https://chemins.be/waremme/chemin/44"/><trkseg>
<trkpt lat="50.692396" lon="5.232708"><time>2026-05-02T18:14:28Z</time></trkpt>
<trkpt lat="50.692096" lon="5.233096"><time>2026-05-02T18:24:28Z</time></trkpt>
<trkpt lat="50.691259" lon="5.234417"><time>2026-05-02T18:34:28Z</time></trkpt>
</trkseg></trk>
<trk>
<name>lwrwr44</name>
<cmt>q</cmt>
<desc>Waremme Chemin n°44 Rue Noé Jacques</desc>
<link href="https://chemins.be/waremme/chemin/44"/><trkseg>
<trkpt lat="50.691259" lon="5.234417"><time>2026-05-02T18:34:28Z</time></trkpt>
<trkpt lat="50.690319" lon="5.235896"><time>2026-05-02T18:44:28Z</time></trkpt>
</trkseg>
</trk>
<trk>
<name>lwrwr45</name>
<cmt>r</cmt>
<desc>Waremme Sentier n°45 </desc>
<link href="https://chemins.be/waremme/sentier/45"/><trkseg>
<trkpt lat="50.688941" lon="5.229642"><time>2026-05-02T18:14:28Z</time></trkpt>
<trkpt lat="50.690165" lon="5.231338"><time>2026-05-02T18:24:28Z</time></trkpt>
<trkpt lat="50.691497" lon="5.232453"><time>2026-05-02T18:34:28Z</time></trkpt>
</trkseg></trk>
<trk>
<name>lwrwr45</name>
<cmt>q</cmt>
<desc>Waremme Sentier n°45 </desc>
<link href="https://chemins.be/waremme/sentier/45"/><trkseg>
<trkpt lat="50.691497" lon="5.232453"><time>2026-05-02T18:34:28Z</time></trkpt>
<trkpt lat="50.692409" lon="5.232703"><time>2026-05-02T18:44:28Z</time></trkpt>
</trkseg></trk>
<trk>
<name>lwrwr45</name>
<cmt>v</cmt>
<desc>Waremme Sentier n°45 </desc>
<link href="https://chemins.be/waremme/sentier/45"/><trkseg>
<trkpt lat="50.692409" lon="5.232703"><time>2026-05-02T18:44:28Z</time></trkpt>
<trkpt lat="50.693010" lon="5.233734"><time>2026-05-02T18:54:28Z</time></trkpt>
<trkpt lat="50.693137" lon="5.233577"><time>2026-05-02T19:04:28Z</time></trkpt>
</trkseg></trk>
<trk>
<name>lwrwr45</name>
<cmt>q</cmt>
<desc>Waremme Sentier n°45 </desc>
<link href="https://chemins.be/waremme/sentier/45"/><trkseg>
<trkpt lat="50.693137" lon="5.233577"><time>2026-05-02T19:04:28Z</time></trkpt>
<trkpt lat="50.693482" lon="5.233762"><time>2026-05-02T19:14:28Z</time></trkpt>
<trkpt lat="50.695874" lon="5.235393"><time>2026-05-02T19:24:28Z</time></trkpt>
<trkpt lat="50.696363" lon="5.235221"><time>2026-05-02T19:34:28Z</time></trkpt>
</trkseg>
</trk>
<trk>
<name>lwrwr48</name>
<cmt>b</cmt>
<desc>Waremme Chemin n°48 Drève de Longchamps / Rue de Huy</desc>
<link href="https://chemins.be/waremme/chemin/48"/><trkseg>
<trkpt lat="50.683105" lon="5.250746"><time>2026-05-02T18:14:28Z</time></trkpt>
<trkpt lat="50.684075" lon="5.249142"><time>2026-05-02T18:24:28Z</time></trkpt>
</trkseg></trk>
<trk>
<name>lwrwr48</name>
<cmt>v</cmt>
<desc>Waremme Chemin n°48 Drève de Longchamps / Rue de Huy</desc>
<link href="https://chemins.be/waremme/chemin/48"/><trkseg>
<trkpt lat="50.684075" lon="5.249142"><time>2026-05-02T18:24:28Z</time></trkpt>
<trkpt lat="50.684259" lon="5.248925"><time>2026-05-02T18:34:28Z</time></trkpt>
<trkpt lat="50.684741" lon="5.248158"><time>2026-05-02T18:44:28Z</time></trkpt>
<trkpt lat="50.685469" lon="5.246955"><time>2026-05-02T18:54:28Z</time></trkpt>
<trkpt lat="50.689401" lon="5.240560"><time>2026-05-02T19:04:28Z</time></trkpt>
</trkseg>
</trk>
<trk>
<name>lwrwr49</name>
<cmt>q</cmt>
<desc>Waremme Chemin n°49 </desc>
<link href="https://chemins.be/waremme/chemin/49"/><trkseg>
<trkpt lat="50.697801" lon="5.279585"><time>2026-05-02T18:14:28Z</time></trkpt>
<trkpt lat="50.698997" lon="5.278963"><time>2026-05-02T18:24:28Z</time></trkpt>
<trkpt lat="50.700689" lon="5.277354"><time>2026-05-02T18:34:28Z</time></trkpt>
</trkseg>
</trk>
<trk>
<name>lwrwr5</name>
<cmt>v</cmt>
<desc>Waremme Chemin n°5 Chemin de Willine</desc>
<link href="https://chemins.be/waremme/chemin/5"/><trkseg>
<trkpt lat="50.701303" lon="5.246525"><time>2026-05-02T18:14:28Z</time></trkpt>
<trkpt lat="50.701515" lon="5.245212"><time>2026-05-02T18:24:28Z</time></trkpt>
<trkpt lat="50.702131" lon="5.243648"><time>2026-05-02T18:34:28Z</time></trkpt>
</trkseg></trk>
<trk>
<name>lwrwr5</name>
<cmt>s</cmt>
<desc>Waremme Chemin n°5 Chemin de Willine</desc>
<link href="https://chemins.be/waremme/chemin/5"/><trkseg>
<trkpt lat="50.702131" lon="5.243648"><time>2026-05-02T18:34:28Z</time></trkpt>
<trkpt lat="50.702352" lon="5.243195"><time>2026-05-02T18:44:28Z</time></trkpt>
<trkpt lat="50.702689" lon="5.237384"><time>2026-05-02T18:54:28Z</time></trkpt>
<trkpt lat="50.702499" lon="5.236028"><time>2026-05-02T19:04:28Z</time></trkpt>
<trkpt lat="50.701428" lon="5.233325"><time>2026-05-02T19:14:28Z</time></trkpt>
</trkseg>
</trk>
<trk>
<name>lwrwr50</name>
<cmt>q</cmt>
<desc>Waremme Sentier n°50 </desc>
<link href="https://chemins.be/waremme/sentier/50"/><trkseg>
<trkpt lat="50.694347" lon="5.271404"><time>2026-05-02T18:14:28Z</time></trkpt>
<trkpt lat="50.693362" lon="5.272585"><time>2026-05-02T18:24:28Z</time></trkpt>
<trkpt lat="50.691977" lon="5.275476"><time>2026-05-02T18:34:28Z</time></trkpt>
<trkpt lat="50.691188" lon="5.277568"><time>2026-05-02T18:44:28Z</time></trkpt>
</trkseg>
</trk>
<trk>
<name>lwrwr53</name>
<cmt>q</cmt>
<desc>Waremme Sentier n°53 </desc>
<link href="https://chemins.be/waremme/sentier/53"/><trkseg>
<trkpt lat="50.702941" lon="5.249068"><time>2026-05-02T18:14:28Z</time></trkpt>
<trkpt lat="50.702868" lon="5.247072"><time>2026-05-02T18:24:28Z</time></trkpt>
<trkpt lat="50.703657" lon="5.245401"><time>2026-05-02T18:34:28Z</time></trkpt>
<trkpt lat="50.704635" lon="5.243332"><time>2026-05-02T18:44:28Z</time></trkpt>
<trkpt lat="50.705619" lon="5.241847"><time>2026-05-02T18:54:28Z</time></trkpt>
<trkpt lat="50.706336" lon="5.241736"><time>2026-05-02T19:04:28Z</time></trkpt>
</trkseg></trk>
<trk>
<name>lwrwr53</name>
<cmt>s</cmt>
<desc>Waremme Sentier n°53 </desc>
<link href="https://chemins.be/waremme/sentier/53"/><trkseg>
<trkpt lat="50.706336" lon="5.241736"><time>2026-05-02T19:04:28Z</time></trkpt>
<trkpt lat="50.706912" lon="5.240663"><time>2026-05-02T19:14:28Z</time></trkpt>
</trkseg>
</trk>
<trk>
<name>lwrwr54</name>
<cmt>v</cmt>
<desc>Waremme Sentier n°54 </desc>
<link href="https://chemins.be/waremme/sentier/54"/><trkseg>
<trkpt lat="50.704756" lon="5.235178"><time>2026-05-02T18:14:28Z</time></trkpt>
<trkpt lat="50.704049" lon="5.235279"><time>2026-05-02T18:24:28Z</time></trkpt>
<trkpt lat="50.702491" lon="5.236337"><time>2026-05-02T18:34:28Z</time></trkpt>
</trkseg></trk>
<trk>
<name>lwrwr54</name>
<cmt>q</cmt>
<desc>Waremme Sentier n°54 </desc>
<link href="https://chemins.be/waremme/sentier/54"/><trkseg>
<trkpt lat="50.702491" lon="5.236337"><time>2026-05-02T18:34:28Z</time></trkpt>
<trkpt lat="50.701646" lon="5.235955"><time>2026-05-02T18:44:28Z</time></trkpt>
<trkpt lat="50.698993" lon="5.237140"><time>2026-05-02T18:54:28Z</time></trkpt>
<trkpt lat="50.698177" lon="5.237161"><time>2026-05-02T19:04:28Z</time></trkpt>
</trkseg></trk>
<trk>
<name>lwrwr54</name>
<cmt>s</cmt>
<desc>Waremme Sentier n°54 </desc>
<link href="https://chemins.be/waremme/sentier/54"/><trkseg>
<trkpt lat="50.698177" lon="5.237161"><time>2026-05-02T19:04:28Z</time></trkpt>
<trkpt lat="50.697657" lon="5.237175"><time>2026-05-02T19:14:28Z</time></trkpt>
</trkseg></trk>
<trk>
<name>lwrwr54</name>
<cmt>q</cmt>
<desc>Waremme Sentier n°54 </desc>
<link href="https://chemins.be/waremme/sentier/54"/><trkseg>
<trkpt lat="50.697657" lon="5.237175"><time>2026-05-02T19:14:28Z</time></trkpt>
<trkpt lat="50.696662" lon="5.237202"><time>2026-05-02T19:24:28Z</time></trkpt>
</trkseg>
</trk>
<trk>
<name>lwrwr59</name>
<cmt>s</cmt>
<desc>Waremme Sentier n°59 </desc>
<link href="https://chemins.be/waremme/sentier/59"/><trkseg>
<trkpt lat="50.694400" lon="5.271353"><time>2026-05-02T18:14:28Z</time></trkpt>
<trkpt lat="50.695939" lon="5.268521"><time>2026-05-02T18:24:28Z</time></trkpt>
</trkseg>
</trk>
<trk>
<name>lwrwr61</name>
<cmt>q</cmt>
<desc>Waremme Sentier n°61 </desc>
<link href="https://chemins.be/waremme/sentier/61"/><trkseg>
<trkpt lat="50.696364" lon="5.257727"><time>2026-05-02T18:14:28Z</time></trkpt>
<trkpt lat="50.696029" lon="5.257469"><time>2026-05-02T18:24:28Z</time></trkpt>
<trkpt lat="50.695141" lon="5.255996"><time>2026-05-02T18:34:28Z</time></trkpt>
</trkseg></trk>
<trk>
<name>lwrwr61</name>
<cmt>s</cmt>
<desc>Waremme Sentier n°61 </desc>
<link href="https://chemins.be/waremme/sentier/61"/><trkseg>
<trkpt lat="50.695141" lon="5.255996"><time>2026-05-02T18:34:28Z</time></trkpt>
<trkpt lat="50.694046" lon="5.254825"><time>2026-05-02T18:44:28Z</time></trkpt>
</trkseg></trk>
<trk>
<name>lwrwr61</name>
<cmt>q</cmt>
<desc>Waremme Sentier n°61 </desc>
<link href="https://chemins.be/waremme/sentier/61"/><trkseg>
<trkpt lat="50.694046" lon="5.254825"><time>2026-05-02T18:44:28Z</time></trkpt>
<trkpt lat="50.693547" lon="5.254245"><time>2026-05-02T18:54:28Z</time></trkpt>
</trkseg></trk>
<trk>
<name>lwrwr61</name>
<cmt>s</cmt>
<desc>Waremme Sentier n°61 </desc>
<link href="https://chemins.be/waremme/sentier/61"/><trkseg>
<trkpt lat="50.693547" lon="5.254245"><time>2026-05-02T18:54:28Z</time></trkpt>
<trkpt lat="50.692958" lon="5.253873"><time>2026-05-02T19:04:28Z</time></trkpt>
</trkseg></trk>
<trk>
<name>lwrwr61</name>
<cmt>q</cmt>
<desc>Waremme Sentier n°61 </desc>
<link href="https://chemins.be/waremme/sentier/61"/><trkseg>
<trkpt lat="50.692958" lon="5.253873"><time>2026-05-02T19:04:28Z</time></trkpt>
<trkpt lat="50.692098" lon="5.253248"><time>2026-05-02T19:14:28Z</time></trkpt>
</trkseg>
</trk>
<trk>
<name>lwrwr62</name>
<cmt>q</cmt>
<desc>Waremme Sentier n°62 </desc>
<link href="https://chemins.be/waremme/sentier/62"/><trkseg>
<trkpt lat="50.691064" lon="5.256506"><time>2026-05-02T18:14:28Z</time></trkpt>
<trkpt lat="50.692245" lon="5.257272"><time>2026-05-02T18:24:28Z</time></trkpt>
</trkseg></trk>
<trk>
<name>lwrwr62</name>
<cmt>s</cmt>
<desc>Waremme Sentier n°62 </desc>
<link href="https://chemins.be/waremme/sentier/62"/><trkseg>
<trkpt lat="50.692245" lon="5.257272"><time>2026-05-02T18:24:28Z</time></trkpt>
<trkpt lat="50.692564" lon="5.257478"><time>2026-05-02T18:34:28Z</time></trkpt>
</trkseg></trk>
<trk>
<name>lwrwr62</name>
<cmt>q</cmt>
<desc>Waremme Sentier n°62 </desc>
<link href="https://chemins.be/waremme/sentier/62"/><trkseg>
<trkpt lat="50.692564" lon="5.257478"><time>2026-05-02T18:34:28Z</time></trkpt>
<trkpt lat="50.696388" lon="5.257815"><time>2026-05-02T18:44:28Z</time></trkpt>
</trkseg>
</trk>
<trk>
<name>lwrwr63</name>
<cmt>s</cmt>
<desc>Waremme Sentier n°63 </desc>
<link href="https://chemins.be/waremme/sentier/63"/><trkseg>
<trkpt lat="50.678391" lon="5.261486"><time>2026-05-02T18:14:28Z</time></trkpt>
<trkpt lat="50.673532" lon="5.269268"><time>2026-05-02T18:24:28Z</time></trkpt>
<trkpt lat="50.671156" lon="5.271986"><time>2026-05-02T18:34:28Z</time></trkpt>
</trkseg>
</trk>
<trk>
<name>lwrwr64</name>
<cmt>s</cmt>
<desc>Waremme Sentier n°64 </desc>
<link href="https://chemins.be/waremme/sentier/64"/><trkseg>
<trkpt lat="50.667479" lon="5.268440"><time>2026-05-02T18:14:28Z</time></trkpt>
<trkpt lat="50.671111" lon="5.272043"><time>2026-05-02T18:24:28Z</time></trkpt>
<trkpt lat="50.674014" lon="5.275301"><time>2026-05-02T18:34:28Z</time></trkpt>
<trkpt lat="50.676114" lon="5.278603"><time>2026-05-02T18:44:28Z</time></trkpt>
</trkseg>
</trk>
<trk>
<name>lwrwr65</name>
<cmt>q</cmt>
<desc>Waremme Sentier n°65 </desc>
<link href="https://chemins.be/waremme/sentier/65"/><trkseg>
<trkpt lat="50.678093" lon="5.237319"><time>2026-05-02T18:14:28Z</time></trkpt>
<trkpt lat="50.677712" lon="5.239529"><time>2026-05-02T18:24:28Z</time></trkpt>
</trkseg>
</trk>
<trk>
<name>lwrwr66</name>
<cmt>q</cmt>
<desc>Waremme Sentier n°66 </desc>
<link href="https://chemins.be/waremme/sentier/66"/><trkseg>
<trkpt lat="50.687224" lon="5.235190"><time>2026-05-02T18:14:28Z</time></trkpt>
<trkpt lat="50.688126" lon="5.234117"><time>2026-05-02T18:24:28Z</time></trkpt>
<trkpt lat="50.688654" lon="5.234414"><time>2026-05-02T18:34:28Z</time></trkpt>
<trkpt lat="50.690075" lon="5.235697"><time>2026-05-02T18:44:28Z</time></trkpt>
<trkpt lat="50.690160" lon="5.235594"><time>2026-05-02T18:54:28Z</time></trkpt>
<trkpt lat="50.690349" lon="5.235765"><time>2026-05-02T19:04:28Z</time></trkpt>
</trkseg>
</trk>
<trk>
<name>lwrwr67</name>
<cmt>q</cmt>
<desc>Waremme Sentier n°67 </desc>
<link href="https://chemins.be/waremme/sentier/67"/><trkseg>
<trkpt lat="50.691238" lon="5.234449"><time>2026-05-02T18:14:28Z</time></trkpt>
<trkpt lat="50.690688" lon="5.233011"><time>2026-05-02T18:24:28Z</time></trkpt>
<trkpt lat="50.690260" lon="5.231402"><time>2026-05-02T18:34:28Z</time></trkpt>
</trkseg>
</trk>
<trk>
<name>lwrwr68</name>
<cmt>q</cmt>
<desc>Waremme Sentier n°68 </desc>
<link href="https://chemins.be/waremme/sentier/68"/><trkseg>
<trkpt lat="50.701544" lon="5.234116"><time>2026-05-02T18:14:28Z</time></trkpt>
<trkpt lat="50.701824" lon="5.232988"><time>2026-05-02T18:24:28Z</time></trkpt>
</trkseg>
</trk>
<trk>
<name>lwrwr7</name>
<cmt>s</cmt>
<desc>Waremme Chemin n°7 </desc>
<link href="https://chemins.be/waremme/chemin/7"/><trkseg>
<trkpt lat="50.685128" lon="5.269389"><time>2026-05-02T18:14:28Z</time></trkpt>
<trkpt lat="50.681009" lon="5.271964"><time>2026-05-02T18:24:28Z</time></trkpt>
<trkpt lat="50.679619" lon="5.274984"><time>2026-05-02T18:34:28Z</time></trkpt>
<trkpt lat="50.678441" lon="5.276653"><time>2026-05-02T18:44:28Z</time></trkpt>
<trkpt lat="50.676136" lon="5.278383"><time>2026-05-02T18:54:28Z</time></trkpt>
</trkseg>
</trk>
<trk>
<name>lwrwr8</name>
<cmt>s</cmt>
<desc>Waremme Chemin n°8 </desc>
<link href="https://chemins.be/waremme/chemin/8"/><trkseg>
<trkpt lat="50.690516" lon="5.262157"><time>2026-05-02T18:14:28Z</time></trkpt>
<trkpt lat="50.688079" lon="5.261410"><time>2026-05-02T18:24:28Z</time></trkpt>
<trkpt lat="50.684081" lon="5.259137"><time>2026-05-02T18:34:28Z</time></trkpt>
</trkseg>
</trk>
<trk>
<name>lwrwri1</name>
<cmt>v</cmt>
<desc>Waremme Sentier n°i1 </desc>
<link href="https://chemins.be/waremme/sentier/i1"/><trkseg>
<trkpt lat="50.696187" lon="5.247990"><time>2026-05-02T18:14:28Z</time></trkpt>
<trkpt lat="50.696376" lon="5.247979"><time>2026-05-02T18:24:28Z</time></trkpt>
<trkpt lat="50.696441" lon="5.247669"><time>2026-05-02T18:34:28Z</time></trkpt>
<trkpt lat="50.696541" lon="5.247572"><time>2026-05-02T18:44:28Z</time></trkpt>
<trkpt lat="50.696721" lon="5.247575"><time>2026-05-02T18:54:28Z</time></trkpt>
<trkpt lat="50.696749" lon="5.247434"><time>2026-05-02T19:04:28Z</time></trkpt>
<trkpt lat="50.696705" lon="5.247221"><time>2026-05-02T19:14:28Z</time></trkpt>
<trkpt lat="50.696751" lon="5.247151"><time>2026-05-02T19:24:28Z</time></trkpt>
<trkpt lat="50.696868" lon="5.247068"><time>2026-05-02T19:34:28Z</time></trkpt>
<trkpt lat="50.697030" lon="5.247114"><time>2026-05-02T19:44:28Z</time></trkpt>
<trkpt lat="50.697039" lon="5.247071"><time>2026-05-02T19:54:28Z</time></trkpt>
<trkpt lat="50.697131" lon="5.246790"><time>2026-05-02T20:04:28Z</time></trkpt>
<trkpt lat="50.697259" lon="5.246537"><time>2026-05-02T20:14:28Z</time></trkpt>
<trkpt lat="50.697377" lon="5.246370"><time>2026-05-02T20:24:28Z</time></trkpt>
</trkseg>
</trk>
<trk>
<name>lwrwri10</name>
<cmt>v</cmt>
<desc>Waremme Sentier n°i10 </desc>
<link href="https://chemins.be/waremme/sentier/i10"/><trkseg>
<trkpt lat="50.701153" lon="5.244150"><time>2026-05-02T18:14:28Z</time></trkpt>
<trkpt lat="50.701628" lon="5.243304"><time>2026-05-02T18:24:28Z</time></trkpt>
</trkseg>
</trk>
<trk>
<name>lwrwri11</name>
<cmt>v</cmt>
<desc>Waremme Sentier n°i11 </desc>
<link href="https://chemins.be/waremme/sentier/i11"/><trkseg>
<trkpt lat="50.701400" lon="5.243669"><time>2026-05-02T18:14:28Z</time></trkpt>
<trkpt lat="50.701859" lon="5.244347"><time>2026-05-02T18:24:28Z</time></trkpt>
</trkseg>
</trk>
<trk>
<name>lwrwri12</name>
<cmt>v</cmt>
<desc>Waremme Sentier n°i12 </desc>
<link href="https://chemins.be/waremme/sentier/i12"/><trkseg>
<trkpt lat="50.700816" lon="5.242970"><time>2026-05-02T18:14:28Z</time></trkpt>
<trkpt lat="50.700495" lon="5.244356"><time>2026-05-02T18:24:28Z</time></trkpt>
<trkpt lat="50.700302" lon="5.244661"><time>2026-05-02T18:34:28Z</time></trkpt>
<trkpt lat="50.700057" lon="5.244266"><time>2026-05-02T18:44:28Z</time></trkpt>
</trkseg>
</trk>
<trk>
<name>lwrwri2</name>
<cmt>v</cmt>
<desc>Waremme Sentier n°i2 </desc>
<link href="https://chemins.be/waremme/sentier/i2"/><trkseg>
<trkpt lat="50.697759" lon="5.246971"><time>2026-05-02T18:14:28Z</time></trkpt>
<trkpt lat="50.697859" lon="5.246818"><time>2026-05-02T18:24:28Z</time></trkpt>
<trkpt lat="50.697931" lon="5.246805"><time>2026-05-02T18:34:28Z</time></trkpt>
<trkpt lat="50.698092" lon="5.246907"><time>2026-05-02T18:44:28Z</time></trkpt>
<trkpt lat="50.698352" lon="5.247011"><time>2026-05-02T18:54:28Z</time></trkpt>
<trkpt lat="50.698514" lon="5.246985"><time>2026-05-02T19:04:28Z</time></trkpt>
<trkpt lat="50.698677" lon="5.246861"><time>2026-05-02T19:14:28Z</time></trkpt>
<trkpt lat="50.699323" lon="5.245854"><time>2026-05-02T19:24:28Z</time></trkpt>
<trkpt lat="50.699440" lon="5.245828"><time>2026-05-02T19:34:28Z</time></trkpt>
<trkpt lat="50.699549" lon="5.245660"><time>2026-05-02T19:44:28Z</time></trkpt>
<trkpt lat="50.699604" lon="5.245477"><time>2026-05-02T19:54:28Z</time></trkpt>
<trkpt lat="50.699723" lon="5.245295"><time>2026-05-02T20:04:28Z</time></trkpt>
<trkpt lat="50.699696" lon="5.245252"><time>2026-05-02T20:14:28Z</time></trkpt>
<trkpt lat="50.699987" lon="5.244847"><time>2026-05-02T20:24:28Z</time></trkpt>
</trkseg>
</trk>
<trk>
<name>lwrwri3</name>
<cmt>q</cmt>
<desc>Waremme Sentier n°i3 </desc>
<link href="https://chemins.be/waremme/sentier/i3"/><trkseg>
<trkpt lat="50.692520" lon="5.250200"><time>2026-05-02T18:14:28Z</time></trkpt>
<trkpt lat="50.693114" lon="5.250126"><time>2026-05-02T18:24:28Z</time></trkpt>
<trkpt lat="50.693290" lon="5.249492"><time>2026-05-02T18:34:28Z</time></trkpt>
<trkpt lat="50.693344" lon="5.249394"><time>2026-05-02T18:44:28Z</time></trkpt>
<trkpt lat="50.693416" lon="5.249382"><time>2026-05-02T18:54:28Z</time></trkpt>
<trkpt lat="50.693775" lon="5.249459"><time>2026-05-02T19:04:28Z</time></trkpt>
<trkpt lat="50.693892" lon="5.249475"><time>2026-05-02T19:14:28Z</time></trkpt>
<trkpt lat="50.693992" lon="5.249421"><time>2026-05-02T19:24:28Z</time></trkpt>
<trkpt lat="50.694168" lon="5.248730"><time>2026-05-02T19:34:28Z</time></trkpt>
<trkpt lat="50.694340" lon="5.248564"><time>2026-05-02T19:44:28Z</time></trkpt>
</trkseg>
</trk>
<trk>
<name>lwrwri4</name>
<cmt>v</cmt>
<desc>Waremme Sentier n°i4 </desc>
<link href="https://chemins.be/waremme/sentier/i4"/><trkseg>
<trkpt lat="50.693103" lon="5.248045"><time>2026-05-02T18:14:28Z</time></trkpt>
<trkpt lat="50.693538" lon="5.248704"><time>2026-05-02T18:24:28Z</time></trkpt>
<trkpt lat="50.693670" lon="5.249075"><time>2026-05-02T18:34:28Z</time></trkpt>
<trkpt lat="50.693775" lon="5.249459"><time>2026-05-02T18:44:28Z</time></trkpt>
</trkseg>
</trk>
<trk>
<name>lwrwri5</name>
<cmt>v</cmt>
<desc>Waremme Sentier n°i5 Cité Huart</desc>
<link href="https://chemins.be/waremme/sentier/i5"/><trkseg>
<trkpt lat="50.695224" lon="5.248127"><time>2026-05-02T18:14:28Z</time></trkpt>
<trkpt lat="50.695695" lon="5.247627"><time>2026-05-02T18:24:28Z</time></trkpt>
</trkseg>
</trk>
<trk>
<name>lwrwri6</name>
<cmt>v</cmt>
<desc>Waremme Chemin n°i6 Pont des Hirondelles / Chemin des Hirondelles</desc>
<link href="https://chemins.be/waremme/chemin/i6"/><trkseg>
<trkpt lat="50.691740" lon="5.258196"><time>2026-05-02T18:14:28Z</time></trkpt>
<trkpt lat="50.691920" lon="5.258214"><time>2026-05-02T18:24:28Z</time></trkpt>
<trkpt lat="50.692206" lon="5.258502"><time>2026-05-02T18:34:28Z</time></trkpt>
<trkpt lat="50.692715" lon="5.258937"><time>2026-05-02T18:44:28Z</time></trkpt>
<trkpt lat="50.693209" lon="5.258918"><time>2026-05-02T18:54:28Z</time></trkpt>
<trkpt lat="50.694137" lon="5.258638"><time>2026-05-02T19:04:28Z</time></trkpt>
</trkseg>
</trk>
<trk>
<name>lwrwri7</name>
<cmt>r</cmt>
<desc>Waremme Chemin n°i7 Rue Luciflore</desc>
<link href="https://chemins.be/waremme/chemin/i7"/><trkseg>
<trkpt lat="50.688701" lon="5.252322"><time>2026-05-02T18:14:28Z</time></trkpt>
<trkpt lat="50.689173" lon="5.251807"><time>2026-05-02T18:24:28Z</time></trkpt>
<trkpt lat="50.689373" lon="5.251486"><time>2026-05-02T18:34:28Z</time></trkpt>
</trkseg>
</trk>
<trk>
<name>lwrwri8</name>
<cmt>v</cmt>
<desc>Waremme Sentier n°i8 </desc>
<link href="https://chemins.be/waremme/sentier/i8"/><trkseg>
<trkpt lat="50.700503" lon="5.245128"><time>2026-05-02T18:14:28Z</time></trkpt>
<trkpt lat="50.700970" lon="5.246021"><time>2026-05-02T18:24:28Z</time></trkpt>
</trkseg>
</trk>
<trk>
<name>lwrwri9</name>
<cmt>v</cmt>
<desc>Waremme Sentier n°i9 </desc>
<link href="https://chemins.be/waremme/sentier/i9"/><trkseg>
<trkpt lat="50.700821" lon="5.244575"><time>2026-05-02T18:14:28Z</time></trkpt>
<trkpt lat="50.701109" lon="5.244708"><time>2026-05-02T18:24:28Z</time></trkpt>
<trkpt lat="50.701490" lon="5.245279"><time>2026-05-02T18:34:28Z</time></trkpt>
</trkseg>
</trk>
</gpx>